Simultaneous Nadir Overpasses (SNOs) Predictions

Prediction of SNOs near equator between AQUA and NPP Satellite Orbit:

Table of predicted SNOs near equator for the next 14.0 days since TLE Epoch: 10/3/2015
Index Date (AQUA) Time (AQUA) AQUA Lat,Lon Date (NPP) Time (NPP) NPP Lat,Lon Distance(km) Time Diff (sec)
1 10/04/2015 22:36:59 -29.99, 39.87 10/04/2015 22:27:49 -30.03, 40.05 17.10 550
2 10/04/2015 23:23:22 18.72,-149.76 10/04/2015 23:15:25 18.72,-149.77 0.55 477
3 10/05/2015 00:06:08 5.23, 23.08 10/04/2015 23:59:18 5.22, 23.01 7.99 410
4 10/05/2015 00:54:23 -9.79,-168.31 10/05/2015 00:48:48 -9.89,-168.64 37.40 335
5 10/05/2015 01:42:31 14.29, 0.33 10/05/2015 01:38:11 14.44, -0.26 65.64 260
6 10/05/2015 02:30:45 -18.91, 168.99 10/05/2015 02:27:41 -19.09, 168.14 92.31 184
7 10/07/2015 14:04:04 29.95, -11.89 10/07/2015 13:54:04 30.15, -11.55 39.18 600
8 10/07/2015 14:53:27 -29.96, 155.76 10/07/2015 14:44:42 -29.98, 155.82 6.49 525
9 10/07/2015 15:36:42 7.34, -31.37 10/07/2015 15:29:05 7.33, -31.36 0.81 457
10 10/07/2015 16:22:12 6.71, 139.28 10/07/2015 16:15:46 6.74, 139.12 18.14 386
11 10/07/2015 17:10:26 -11.34, -52.10 10/07/2015 17:05:16 -11.41, -52.53 47.60 310
12 10/07/2015 17:58:34 15.83, 116.55 10/07/2015 17:54:39 15.95, 115.86 75.34 235
13 10/10/2015 06:20:32 29.95, 103.99 10/10/2015 06:10:55 29.99, 104.26 26.08 577
14 10/10/2015 07:09:10 -27.25, -87.66 10/10/2015 07:00:49 -27.25, -87.67 1.14 501
15 10/10/2015 07:50:24 -2.70, 86.65 10/10/2015 07:43:08 -2.70, 86.65 0.20 436
16 10/10/2015 08:38:16 8.17,-104.52 10/10/2015 08:32:14 8.25,-104.77 28.93 362
17 10/10/2015 09:26:30 -12.73, 64.09 10/10/2015 09:21:44 -12.86, 63.57 57.91 286
18 10/10/2015 10:14:37 17.29,-127.24 10/10/2015 10:11:06 17.46,-128.02 84.94 211
19 10/12/2015 22:36:59 29.97,-140.13 10/12/2015 22:27:48 30.01,-139.98 15.14 551
20 10/12/2015 23:22:41 -16.68, 30.73 10/12/2015 23:14:41 -16.68, 30.73 0.09 480
21 10/13/2015 00:06:10 -5.16,-156.94 10/12/2015 23:59:18 -5.21,-157.02 10.51 412
22 10/13/2015 00:54:18 9.66, 11.68 10/13/2015 00:48:41 9.75, 11.33 39.53 337
23 10/13/2015 01:42:32 -14.28,-179.68 10/13/2015 01:38:11 -14.42, 179.70 68.02 261
24 10/13/2015 02:30:40 18.78, -11.01 10/13/2015 02:27:34 18.97, -11.89 94.45 186
25 10/15/2015 14:03:56 -29.95, 168.13 10/15/2015 13:53:56 -30.20, 168.43 40.36 600
26 10/15/2015 14:53:26 29.95, -24.24 10/15/2015 14:44:41 29.98, -24.21 4.85 525
27 10/15/2015 15:36:01 -5.37, 149.08 10/15/2015 15:28:22 -5.37, 149.09 0.69 459
28 10/15/2015 16:22:11 -6.75, -40.72 10/15/2015 16:15:45 -6.77, -40.91 21.08 386
29 10/15/2015 17:10:19 11.24, 127.91 10/15/2015 17:05:08 11.31, 127.46 50.16 311
30 10/15/2015 17:58:34 -15.80, -63.46 10/15/2015 17:54:38 -15.98, -64.17 78.13 236




NCC Satellite Simultaneous Nadir Overpasses (SNOs) Prediction Service
